Tracking 30995 objects as of 7-Jul-2025
HD Live streaming from Space Station
objects crossing your sky now

ATLAS AGENA B DEB

Track ATLAS AGENA B DEB now!
10-day predictions


NORAD ID: 3121
Int'l Code: 1963-030F
Perigee: 3,675.1 km
Apogee: 3,741.0 km
Inclination: 88.4 °
Period: 167.8 minutes
Semi major axis: 10079 km
RCS: 0.1321 m2 (medium)
Launch date: July 19, 1963
Source: United States (US)
Launch site: AIR FORCE WESTERN TEST RANGE (AFWTR)

Note: This is SATELLITE DEBRIS
Your satellite tracking list
Your tracking list is empty




NASA's NSSDC Master Catalog

Two Line Element Set (TLE):
1 03121U 63030F   25187.19365162  .00000005  00000-0  10301-2 0  9997
2 03121  88.4174 227.7263 0032682  53.3926 306.9924  8.57968033177095
Source of the keplerian elements: AFSPC